Location: Montreal
(45.5000°N, 73.5833°W)
Time: 20:06:49
(UTC-04:00)

ISS - Pass Details

Date: 12 October 2017
Orbit: 401 x 408 km, 51.6° (Epoch: 17 October)

Event Time Altitude Azimuth Distance (km) Brightness Sun altitude
Rises 19:33:43 0° 297° (WNW) 2,326 1.3 -14.8°
Reaches altitude 10° 19:35:48 10° 294° (WNW) 1,464 0.2 -15.2°
Maximum altitude 19:39:03 63° 213° (SSW) 457 -3.5 -15.7°
Enters shadow 19:40:28 30° 142° (SE) 757 -2.8 -16.0°
